This is the latest recevied weather packets stored in our database for station/object G4KVI. If no packets are shown the sender has not sent any weather packets the latest 10 day(s).
| Time | Temp. | Humidity | Pressure | Rain* | Wind** | Luminosity | Snow |
|---|---|---|---|---|---|---|---|
| 1788115204 | 16.67° C | 84% | 1007 hPa | 0.25 mm | - | 10 W/m² | - |
| 1788114904 | 16.67° C | 84% | 1006.9 hPa | 0.25 mm | - | 17 W/m² | - |
| 1788114604 | 16.67° C | 84% | 1007.1 hPa | 0.51 mm | - | 22 W/m² | - |
| 1788114304 | 17.22° C | 84% | 1007.4 hPa | 0.51 mm | - | 16 W/m² | - |
| 1788114004 | 17.22° C | 84% | 1007.6 hPa | 0.51 mm | - | 11 W/m² | - |
| 1788113704 | 17.22° C | 83% | 1007.5 hPa | 0.51 mm | - | 7 W/m² | - |
| 1788113404 | 17.22° C | 82% | 1007.4 hPa | 0.25 mm | - | 5 W/m² | - |
| 1788113104 | 17.22° C | 82% | 1007.5 hPa | 0.25 mm | - | 27 W/m² | - |
| 1788112804 | 17.22° C | 82% | 1007.7 hPa | 0.25 mm | - | 34 W/m² | - |
| 1788112504 | 17.22° C | 83% | 1007.9 hPa | 0.25 mm | - | 31 W/m² | - |
| 1788112204 | 17.22° C | 84% | 1007.7 hPa | 0.25 mm | - | 72 W/m² | - |
| 1788111904 | 17.78° C | 84% | 1007.7 hPa | 0.25 mm | - | 74 W/m² | - |
| 1788111604 | 17.78° C | 83% | 1007.6 hPa | 0.25 mm | - | 29 W/m² | - |
| 1788111304 | 17.78° C | 82% | 1007.6 hPa | 0.25 mm | - | 31 W/m² | - |
| 1788111004 | 17.78° C | 81% | 1008 hPa | 0 mm | - | 24 W/m² | - |
| 1788110704 | 17.78° C | 80% | 1007.7 hPa | 0 mm | - | 22 W/m² | - |
| 1788110404 | 18.33° C | 79% | 1007.9 hPa | 0 mm | - | 28 W/m² | - |
| 1788110104 | 18.33° C | 79% | 1007.9 hPa | 0 mm | - | 46 W/m² | - |
| 1788109804 | 18.33° C | 78% | 1008.2 hPa | 0 mm | - | 35 W/m² | - |
| 1788109504 | 18.33° C | 77% | 1008.1 hPa | 0 mm | - | 57 W/m² | - |
| 1788109204 | 18.89° C | 77% | 1008.2 hPa | 0 mm | - | 69 W/m² | - |
| 1788108904 | 18.89° C | 76% | 1008.2 hPa | 0 mm | - | 115 W/m² | - |
| 1788108604 | 18.89° C | 76% | 1008.3 hPa | 0 mm | - | 127 W/m² | - |
| 1788108304 | 18.89° C | 77% | 1008.4 hPa | 0 mm | - | 108 W/m² | - |
| 1788108004 | 18.89° C | 76% | 1008.1 hPa | 0 mm | - | 119 W/m² | - |
* Rain latest hour (hover to see other rain measurements)
** Current wind speed in m/s (hover to see current wind gust speed)